Location: Wiesbaden
(50.0830°N, 8.2500°E)
Time: 07:57:34
(UTC+01:00)

ISS - Pass Details

Date: 13 December 2018
Orbit: 401 x 408 km, 51.6° (Epoch: 12 December)

Event Time Altitude Azimuth Distance (km) Brightness Sun altitude
Rises 18:03:41 0° 281° (WNW) 2,319 1.1 -14.9°
Reaches altitude 10° 18:06:28 10° 256° (WSW) 1,455 0.4 -15.3°
Maximum altitude 18:08:17 14° 222° (SW) 1,226 -0.5 -15.6°
Drops below altitude 10° 18:10:06 10° 188° (S) 1,448 -0.7 -15.8°
Sets 18:12:51 0° 162° (SSE) 2,301 0.0 -16.3°
